Miscellaneous Local Product
Issued by NWS Hastings, NE

Home | Current Version | Previous Version | Text Only | Print | Product List | Glossary Off
Versions: 1 2 3 4 5 6 7 8 9 10 11 12 13 14 15 16 17 18 19 20 21 22 23 24 25 26 27 28 29 30 31 32 33 34 35 36 37 38 39 40 41 42 43 44 45 46 47 48 49 50

000
AXUS43 KGID 031102
MISGRI

GID CWA HOURLY WEATHER ROUNDUP
NATIONAL WEATHER SERVICE HASTINGS NE
600 AM CDT FRI JUL 03 2015

NOTE: "FAIR" INDICATES FEW OR NO CLOUDS BELOW 12,000 FEET WITH NO
SIGNIFICANT WEATHER AND/OR OBSTRUCTIONS TO VISIBILITY.

...SOUTH CENTRAL NEBRASKA...

CITY           SKY/WX    TMP DP  RH WIND       PRES   REMARKS
GRAND ISLAND   CLOUDY    64  63  96 N6        30.02R FOG
HASTINGS       CLOUDY    66  63  90 N8        30.01R FOG
KEARNEY        CLOUDY    63  59  88 N8        30.03S
ORD            CLEAR     55  54  96 NW3       30.02R
YORK           CLOUDY    64  64 100 NE7       30.00R FOG
AURORA         CLOUDY    64  64 100 N6        30.01R FOG
LEXINGTON      FOG       63  62  97 CALM      30.05R VSB 1/2
HOLDREGE       FOG       62  61  96 NE10      30.02S VSB 3/4
HEBRON         RAIN      68  65  90 NE5       29.97R

...NEBRASKA PANHANDLE...

CITY           SKY/WX    TMP DP  RH WIND       PRES   REMARKS
CHADRON        CLEAR     57  55  93 SW5       30.10R
ALLIANCE       MOCLDY    57  56  96 W5        30.11S
SCOTTSBLUFF    PTCLDY    61  58  90 CALM      30.14R
SIDNEY         CLEAR     58  57  97 NW5       30.15S

...WESTERN AND NORTH CENTRAL NEBRASKA...

CITY           SKY/WX    TMP DP  RH WIND       PRES   REMARKS
VALENTINE      CLEAR     57  55  93 CALM      30.05R
AINSWORTH      FOG       56  56 100 S5        30.05S VSB 1/4
ONEILL         FOG       61  60  99 CALM      30.02S VSB 1/4
BROKEN BOW     CLOUDY    63  62  97 NW3       30.04S
IMPERIAL       MOCLDY    62  57  83 NW3       30.09R
NORTH PLATTE   CLEAR     56  54  93 W3        30.06S
MCCOOK         PTCLDY    60  57  89 NW6       30.05R

...EASTERN NEBRASKA...

CITY           SKY/WX    TMP DP  RH WIND       PRES   REMARKS
NORFOLK        CLOUDY    64  62  93 CALM      30.02R FOG
SO SIOUX CITY  FOG       53  50  89 CALM      30.01S VSB 1/4
TEKAMAH        FOG       55  54  96 NW5       30.00S VSB 3/4
COLUMBUS       CLOUDY    63  55  77 CALM      30.01R
ALBION         CLOUDY    64  60  87 CALM      30.02R FOG
OMAHA EPPLEY   CLEAR     57  55  93 N8        29.99R
OFFUTT AFB     CLEAR     58  55  88 CALM      29.98R
MILLARD        CLEAR     58  55  89 CALM      29.99S
LINCOLN        CLOUDY    64  59  83 E7        29.99S
NEBRASKA CITY  CLOUDY    62  57  85 NE6       29.98R
BEATRICE       CLOUDY    64  61  92 NE7       29.97S
FALLS CITY     LGT RAIN  64  60  87 NE7       29.96R

...NORTHERN KANSAS...

CITY           SKY/WX    TMP DP  RH WIND       PRES   REMARKS
GOODLAND       PTCLDY    59  56  89 W5        30.10R
HILL CITY      CLEAR     61  58  90 W5        30.02R
NORTON         SUNNY     57  55  94 N6        30.02S FOG
PHILLIPSBURG   CLOUDY    66  66 100 N6        30.02R FOG
SMITH CENTER   PTCLDY    63  61  94 N8        30.00R
HAYS           CLEAR     63  55  77 NW3       30.00R
RUSSELL        PTCLDY    64  63  96 NW5       29.98R
CONCORDIA      CLOUDY    67  67 100 N5        29.95R FOG
SALINA         CLOUDY    68  65  90 NW7       29.94R
TOPEKA         LGT RAIN  68  66  93 NE10      29.92R FOG



USA.gov is the U.S. government's official web portal to all federal, state and local government web resources and services.